CEB257 RPMD-RPVE

Flight info

Callsign CEB257
Flight time 1h 9m
Altitude 36000
Route JOFER3P JOFER W8 MCT W6A ROX TR15 KLO KLO5A
Aircraft A20N/M-SDE2E3FGHIRWXY/LB1

Departure

Time 2026-04-26 06:21
Airport Francisco Bangoy International Airport (RPMD)

Arrival

Time 2026-04-26 07:31
Airport Godofredo P. Ramos Airport (RPVE)
Time Latitude Longitude Altitude Speed Heading
2026-04-26 05:49 7.13076 125.64692 117 ft 0 kts 319°
2026-04-26 05:49 7.13076 125.64693 117 ft 0 kts 319°
2026-04-26 06:05 7.13073 125.64694 117 ft 2 kts 319°
2026-04-26 06:05 7.13065 125.64706 117 ft 2 kts 291°
2026-04-26 06:06 7.13061 125.64722 117 ft 2 kts 270°
2026-04-26 06:06 7.13061 125.64737 117 ft 2 kts 277°
2026-04-26 06:06 7.13055 125.64751 117 ft 2 kts 310°
2026-04-26 06:06 7.13043 125.64761 117 ft 2 kts 339°
2026-04-26 06:07 7.13028 125.64763 117 ft 2 kts
2026-04-26 06:07 7.13013 125.64760 117 ft 2 kts 24°
2026-04-26 06:07 7.13000 125.64751 117 ft 2 kts 45°
2026-04-26 06:07 7.12994 125.64744 117 ft 0 kts 52°
2026-04-26 06:08 7.13004 125.64755 117 ft 2 kts 48°
2026-04-26 06:08 7.13007 125.64758 117 ft 0 kts 48°
2026-04-26 06:13 7.13008 125.64760 117 ft 2 kts 51°
2026-04-26 06:14 7.13016 125.64788 117 ft 5 kts 95°
2026-04-26 06:14 7.12995 125.64822 117 ft 6 kts 136°
2026-04-26 06:14 7.12956 125.64855 117 ft 7 kts 140°
2026-04-26 06:14 7.12912 125.64893 117 ft 8 kts 140°
2026-04-26 06:15 7.12880 125.64930 117 ft 7 kts 108°
2026-04-26 06:15 7.12892 125.64970 117 ft 5 kts 52°
2026-04-26 06:15 7.12922 125.65005 117 ft 7 kts 49°
2026-04-26 06:15 7.12957 125.65048 117 ft 8 kts 50°
2026-04-26 06:16 7.12999 125.65096 117 ft 9 kts 50°
2026-04-26 06:16 7.13045 125.65150 117 ft 10 kts 49°
2026-04-26 06:16 7.13097 125.65210 117 ft 11 kts 49°
2026-04-26 06:16 7.13152 125.65275 117 ft 12 kts 49°
2026-04-26 06:17 7.13212 125.65344 117 ft 13 kts 49°
2026-04-26 06:17 7.13276 125.65419 117 ft 14 kts 50°
2026-04-26 06:17 7.13340 125.65492 117 ft 11 kts 38°
2026-04-26 06:17 7.13417 125.65508 117 ft 7 kts
2026-04-26 06:18 7.13459 125.65541 117 ft 8 kts 77°
2026-04-26 06:18 7.13432 125.65585 117 ft 6 kts 172°
2026-04-26 06:18 7.13403 125.65567 117 ft 0 kts 229°
2026-04-26 06:20 7.13402 125.65566 117 ft 3 kts 229°
2026-04-26 06:20 7.13204 125.65337 117 ft 84 kts 230°
2026-04-26 06:20 7.12664 125.64707 127 ft 147 kts 227°
2026-04-26 06:21 7.11982 125.63901 614 ft 154 kts 226°
2026-04-26 06:21 7.11276 125.63083 1229 ft 158 kts 231°
2026-04-26 06:21 7.10963 125.62044 1819 ft 164 kts 281°
2026-04-26 06:21 7.11566 125.61073 2247 ft 172 kts 319°
2026-04-26 06:22 7.12533 125.60296 2607 ft 188 kts 325°
2026-04-26 06:22 7.13617 125.59450 3007 ft 205 kts 323°
2026-04-26 06:22 7.14757 125.58483 3408 ft 225 kts 321°
2026-04-26 06:22 7.15979 125.57368 3810 ft 246 kts 319°
2026-04-26 06:23 7.17267 125.56140 4291 ft 264 kts 317°
2026-04-26 06:23 7.18622 125.54819 4878 ft 278 kts 317°
2026-04-26 06:23 7.19728 125.53727 5553 ft 280 kts 317°
2026-04-26 06:23 7.20638 125.52828 6153 ft 281 kts 317°
2026-04-26 06:24 7.22012 125.51464 7026 ft 282 kts 317°
2026-04-26 06:24 7.23431 125.50057 7851 ft 287 kts 317°
2026-04-26 06:24 7.24854 125.48646 8644 ft 292 kts 317°
2026-04-26 06:24 7.26303 125.47208 9422 ft 297 kts 317°
2026-04-26 06:25 7.27786 125.45735 10193 ft 301 kts 317°
2026-04-26 06:25 7.29295 125.44236 10802 ft 312 kts 317°
2026-04-26 06:25 7.30851 125.42693 11431 ft 320 kts 317°
2026-04-26 06:25 7.32451 125.41106 12179 ft 323 kts 318°
2026-04-26 06:26 7.34183 125.39712 12889 ft 324 kts 331°
2026-04-26 06:26 7.36233 125.38758 13620 ft 324 kts 344°
2026-04-26 06:26 7.38397 125.38125 14322 ft 327 kts 347°
2026-04-26 06:26 7.40617 125.37529 15001 ft 330 kts 347°
2026-04-26 06:27 7.42864 125.36926 15664 ft 333 kts 346°
2026-04-26 06:27 7.45115 125.36314 16316 ft 336 kts 346°
2026-04-26 06:27 7.47379 125.35692 16946 ft 339 kts 346°
2026-04-26 06:27 7.49660 125.35062 17553 ft 342 kts 346°
2026-04-26 06:28 7.51950 125.34418 18135 ft 346 kts 345°
2026-04-26 06:28 7.54306 125.33749 18703 ft 349 kts 345°
2026-04-26 06:28 7.56655 125.33083 19245 ft 353 kts 345°
2026-04-26 06:28 7.59011 125.32418 19776 ft 356 kts 346°
2026-04-26 06:29 7.61424 125.31741 20304 ft 360 kts 346°
2026-04-26 06:29 7.63835 125.31068 20819 ft 363 kts 345°
2026-04-26 06:29 7.66302 125.30379 21333 ft 366 kts 346°
2026-04-26 06:29 7.68765 125.29691 21835 ft 370 kts 346°
2026-04-26 06:30 7.71263 125.28995 22332 ft 373 kts 346°
2026-04-26 06:30 7.73762 125.28298 22846 ft 376 kts 345°
2026-04-26 06:30 7.76316 125.27586 23373 ft 379 kts 346°
2026-04-26 06:30 7.78864 125.26875 23896 ft 381 kts 345°
2026-04-26 06:31 7.81419 125.26162 24410 ft 384 kts 345°
2026-04-26 06:31 7.84031 125.25434 24921 ft 387 kts 345°
2026-04-26 06:31 7.86630 125.24709 25400 ft 390 kts 345°
2026-04-26 06:31 7.89264 125.23974 25883 ft 393 kts 345°
2026-04-26 06:32 7.91894 125.23239 26358 ft 396 kts 345°
2026-04-26 06:32 7.94587 125.22456 26815 ft 400 kts 343°
2026-04-26 06:32 7.97222 125.21498 27268 ft 403 kts 339°
2026-04-26 06:32 7.99784 125.20342 27707 ft 406 kts 334°
2026-04-26 06:33 8.02300 125.19051 28123 ft 410 kts 333°
2026-04-26 06:33 8.04868 125.17707 28535 ft 413 kts 333°
2026-04-26 06:33 8.07432 125.16363 28927 ft 415 kts 333°
2026-04-26 06:33 8.10002 125.15018 29328 ft 417 kts 333°
2026-04-26 06:34 8.12588 125.13673 29709 ft 420 kts 333°
2026-04-26 06:34 8.15189 125.12324 30082 ft 422 kts 333°
2026-04-26 06:34 8.17801 125.10967 30432 ft 424 kts 333°
2026-04-26 06:34 8.20467 125.09579 30760 ft 427 kts 333°
2026-04-26 06:35 8.23112 125.08201 31074 ft 429 kts 333°
2026-04-26 06:35 8.25754 125.06823 31378 ft 431 kts 333°
2026-04-26 06:35 8.28445 125.05419 31729 ft 432 kts 333°
2026-04-26 06:35 8.31127 125.04020 32153 ft 431 kts 333°
2026-04-26 06:36 8.33789 125.02632 32608 ft 430 kts 333°
2026-04-26 06:36 8.36442 125.01249 33094 ft 428 kts 333°
2026-04-26 06:36 8.39072 124.99878 33592 ft 427 kts 332°
2026-04-26 06:36 8.41721 124.98496 34084 ft 426 kts 332°
2026-04-26 06:37 8.44342 124.97128 34564 ft 424 kts 332°
2026-04-26 06:37 8.47000 124.95740 34953 ft 425 kts 332°
2026-04-26 06:37 8.49639 124.94360 35274 ft 426 kts 332°
2026-04-26 06:37 8.52277 124.92982 35553 ft 429 kts 332°
2026-04-26 06:38 8.54925 124.91598 35842 ft 430 kts 332°
2026-04-26 06:38 8.60261 124.88808 35942 ft 433 kts 332°
2026-04-26 06:39 8.65625 124.86001 35947 ft 433 kts 333°
2026-04-26 06:39 8.71009 124.83182 35935 ft 433 kts 333°
2026-04-26 06:40 8.76283 124.80421 35922 ft 433 kts 332°
2026-04-26 06:40 8.81617 124.77628 35885 ft 433 kts 333°
2026-04-26 06:41 8.86973 124.74826 35852 ft 433 kts 333°
2026-04-26 06:41 8.92346 124.72013 35836 ft 434 kts 333°
2026-04-26 06:42 8.97720 124.69199 35835 ft 434 kts 333°
2026-04-26 06:42 9.03090 124.66386 35827 ft 434 kts 333°
2026-04-26 06:43 9.08493 124.63557 35819 ft 435 kts 333°
2026-04-26 06:43 9.13869 124.60746 35820 ft 435 kts 333°
2026-04-26 06:44 9.19254 124.57931 35824 ft 434 kts 333°
2026-04-26 06:44 9.24602 124.55128 35825 ft 434 kts 332°
2026-04-26 06:45 9.29993 124.52297 35823 ft 434 kts 332°
2026-04-26 06:45 9.35368 124.49472 35822 ft 434 kts 332°
2026-04-26 06:46 9.40722 124.46655 35821 ft 434 kts 332°
2026-04-26 06:46 9.46100 124.43825 35821 ft 434 kts 332°
2026-04-26 06:47 9.51421 124.41022 35824 ft 433 kts 332°
2026-04-26 06:47 9.56808 124.38183 35829 ft 433 kts 332°
2026-04-26 06:48 9.62164 124.35371 35845 ft 433 kts 332°
2026-04-26 06:48 9.67519 124.32536 35863 ft 434 kts 332°
2026-04-26 06:49 9.72865 124.29703 35886 ft 434 kts 332°
2026-04-26 06:49 9.78218 124.26878 35902 ft 433 kts 332°
2026-04-26 06:50 9.83588 124.24047 35902 ft 433 kts 332°
2026-04-26 06:50 9.88935 124.21230 35887 ft 433 kts 332°
2026-04-26 06:51 9.94274 124.18415 35870 ft 433 kts 332°
2026-04-26 06:51 10.02304 124.14176 35850 ft 434 kts 332°
2026-04-26 06:52 10.07684 124.11335 35845 ft 434 kts 332°
2026-04-26 06:52 10.13023 124.08521 35842 ft 434 kts 332°
2026-04-26 06:53 10.18410 124.05688 35840 ft 434 kts 332°
2026-04-26 06:53 10.23753 124.02866 35839 ft 434 kts 332°
2026-04-26 06:54 10.29032 123.99862 35841 ft 433 kts 327°
2026-04-26 06:54 10.33915 123.96285 35841 ft 432 kts 319°
2026-04-26 06:55 10.38382 123.92191 35843 ft 431 kts 315°
2026-04-26 06:55 10.42755 123.87986 35846 ft 432 kts 315°
2026-04-26 06:56 10.47132 123.83787 35853 ft 433 kts 315°
2026-04-26 06:56 10.51493 123.79609 35853 ft 432 kts 315°
2026-04-26 06:57 10.55866 123.75422 35850 ft 432 kts 315°
2026-04-26 06:57 10.60254 123.71221 35846 ft 432 kts 315°
2026-04-26 06:58 10.63184 123.68417 35543 ft 434 kts 315°
2026-04-26 06:58 10.64124 123.67516 35248 ft 435 kts 315°
2026-04-26 06:58 10.66235 123.65494 34605 ft 435 kts 315°
2026-04-26 06:59 10.68414 123.63407 33924 ft 436 kts 315°
2026-04-26 06:59 10.70622 123.61292 33215 ft 437 kts 315°
2026-04-26 06:59 10.72847 123.59157 32484 ft 439 kts 315°
2026-04-26 06:59 10.75059 123.57037 32022 ft 436 kts 316°
2026-04-26 07:00 10.77258 123.54929 31775 ft 436 kts 315°
2026-04-26 07:00 10.79046 123.53213 31664 ft 436 kts 315°
2026-04-26 07:00 10.82752 123.49657 31669 ft 436 kts 315°
2026-04-26 07:01 10.87172 123.45412 31671 ft 436 kts 315°
2026-04-26 07:01 10.91568 123.41188 31675 ft 436 kts 315°
2026-04-26 07:02 10.95946 123.36983 31680 ft 435 kts 315°
2026-04-26 07:02 10.99989 123.33092 31632 ft 436 kts 315°
2026-04-26 07:03 11.02190 123.30961 31374 ft 435 kts 315°
2026-04-26 07:03 11.04380 123.28844 31124 ft 435 kts 315°
2026-04-26 07:03 11.06570 123.26733 30877 ft 432 kts 315°
2026-04-26 07:03 11.08751 123.24631 30628 ft 430 kts 315°
2026-04-26 07:04 11.10919 123.22546 30377 ft 427 kts 315°
2026-04-26 07:04 11.13088 123.20472 30127 ft 426 kts 315°
2026-04-26 07:04 11.15240 123.18413 29878 ft 423 kts 315°
2026-04-26 07:04 11.17363 123.16376 29630 ft 421 kts 315°
2026-04-26 07:05 11.19502 123.14321 29377 ft 419 kts 315°
2026-04-26 07:05 11.21609 123.12295 29128 ft 417 kts 315°
2026-04-26 07:05 11.23724 123.10256 28876 ft 415 kts 315°
2026-04-26 07:05 11.25794 123.08261 28627 ft 413 kts 315°
2026-04-26 07:06 11.27878 123.06252 28379 ft 410 kts 315°
2026-04-26 07:06 11.29953 123.04250 28131 ft 408 kts 315°
2026-04-26 07:06 11.32023 123.02254 27881 ft 406 kts 315°
2026-04-26 07:06 11.34070 123.00279 27634 ft 404 kts 315°
2026-04-26 07:07 11.36095 122.98323 27393 ft 402 kts 315°
2026-04-26 07:07 11.38114 122.96375 27158 ft 400 kts 315°
2026-04-26 07:07 11.40147 122.94415 26918 ft 399 kts 315°
2026-04-26 07:07 11.42140 122.92491 26606 ft 397 kts 315°
2026-04-26 07:08 11.44155 122.90546 26237 ft 395 kts 315°
2026-04-26 07:08 11.46118 122.88651 25855 ft 392 kts 315°
2026-04-26 07:08 11.48109 122.86727 25457 ft 389 kts 316°
2026-04-26 07:08 11.50047 122.84854 25052 ft 386 kts 315°
2026-04-26 07:09 11.52011 122.82958 24652 ft 383 kts 315°
2026-04-26 07:09 11.53933 122.81099 24247 ft 380 kts 316°
2026-04-26 07:09 11.55840 122.79255 23844 ft 377 kts 316°
2026-04-26 07:09 11.57734 122.77407 23449 ft 374 kts 313°
2026-04-26 07:10 11.60941 122.70449 22199 ft 366 kts 283°
2026-04-26 07:11 11.62067 122.65407 21392 ft 361 kts 284°
2026-04-26 07:11 11.62632 122.62935 20994 ft 359 kts 284°
2026-04-26 07:11 11.63202 122.60475 20587 ft 357 kts 284°
2026-04-26 07:11 11.63769 122.58041 20187 ft 354 kts 284°
2026-04-26 07:12 11.64342 122.55580 19785 ft 352 kts 284°
2026-04-26 07:12 11.64900 122.53185 19392 ft 351 kts 284°
2026-04-26 07:12 11.65460 122.50776 18988 ft 349 kts 284°
2026-04-26 07:12 11.66019 122.48373 18586 ft 347 kts 284°
2026-04-26 07:13 11.66578 122.45973 18191 ft 345 kts 284°
2026-04-26 07:13 11.67125 122.43621 17801 ft 343 kts 284°
2026-04-26 07:13 11.67675 122.41252 17400 ft 342 kts 285°
2026-04-26 07:13 11.68380 122.38950 16994 ft 339 kts 295°
2026-04-26 07:14 11.69502 122.36871 16610 ft 336 kts 306°
2026-04-26 07:14 11.70920 122.34986 16222 ft 334 kts 310°
2026-04-26 07:14 11.72388 122.33137 15833 ft 332 kts 310°
2026-04-26 07:14 11.73821 122.31333 15461 ft 331 kts 309°
2026-04-26 07:15 11.75280 122.29492 15077 ft 329 kts 309°
2026-04-26 07:15 11.76706 122.27686 14700 ft 328 kts 309°
2026-04-26 07:15 11.78140 122.25865 14309 ft 327 kts 309°
2026-04-26 07:15 11.79554 122.24069 13929 ft 325 kts 309°
2026-04-26 07:16 11.80971 122.22265 13566 ft 323 kts 309°
2026-04-26 07:16 11.82380 122.20470 13177 ft 323 kts 309°
2026-04-26 07:16 11.83769 122.18702 12798 ft 322 kts 309°
2026-04-26 07:16 11.85168 122.16918 12423 ft 321 kts 309°
2026-04-26 07:17 11.86570 122.15132 12041 ft 319 kts 309°
2026-04-26 07:17 11.87951 122.13372 11666 ft 318 kts 309°
2026-04-26 07:17 11.89321 122.11626 11298 ft 316 kts 309°
2026-04-26 07:17 11.90694 122.09877 10926 ft 315 kts 309°
2026-04-26 07:18 11.92069 122.08123 10554 ft 313 kts 309°
2026-04-26 07:18 11.93432 122.06387 10189 ft 312 kts 309°
2026-04-26 07:18 11.94774 122.04675 9947 ft 304 kts 309°
2026-04-26 07:18 11.95342 122.03951 9884 ft 300 kts 309°
2026-04-26 07:19 11.96644 122.02288 9540 ft 298 kts 309°
2026-04-26 07:19 11.97936 122.00641 9204 ft 295 kts 310°
2026-04-26 07:19 11.99224 121.98998 8869 ft 293 kts 310°
2026-04-26 07:19 12.00490 121.97379 8539 ft 291 kts 310°
2026-04-26 07:20 12.01753 121.95766 8207 ft 289 kts 310°
2026-04-26 07:20 12.02973 121.94133 7860 ft 289 kts 302°
2026-04-26 07:20 12.03542 121.92206 7505 ft 290 kts 270°
2026-04-26 07:20 12.03109 121.90229 7192 ft 283 kts 241°
2026-04-26 07:21 12.02035 121.88603 6883 ft 275 kts 232°
2026-04-26 07:21 12.00895 121.87045 6578 ft 267 kts 232°
2026-04-26 07:21 11.99808 121.85539 6285 ft 260 kts 233°
2026-04-26 07:21 11.98773 121.84077 6005 ft 253 kts 234°
2026-04-26 07:22 11.97757 121.82617 5729 ft 247 kts 234°
2026-04-26 07:22 11.96776 121.81197 5465 ft 244 kts 234°
2026-04-26 07:22 11.95793 121.79772 5202 ft 244 kts 234°
2026-04-26 07:22 11.94818 121.78359 4941 ft 243 kts 234°
2026-04-26 07:23 11.93838 121.76938 4681 ft 243 kts 234°
2026-04-26 07:23 11.92874 121.75540 4419 ft 241 kts 234°
2026-04-26 07:23 11.91722 121.74313 4108 ft 238 kts 207°
2026-04-26 07:23 11.90206 121.73830 3991 ft 220 kts 178°
2026-04-26 07:24 11.88762 121.74066 3930 ft 203 kts 152°
2026-04-26 07:24 11.87516 121.74689 3966 ft 197 kts 147°
2026-04-26 07:24 11.86334 121.75334 3912 ft 183 kts 147°
2026-04-26 07:24 11.85260 121.75915 3839 ft 168 kts 146°
2026-04-26 07:25 11.84385 121.76608 3660 ft 152 kts 120°
2026-04-26 07:25 11.84031 121.77545 3494 ft 138 kts 86°
2026-04-26 07:25 11.84206 121.78508 3399 ft 139 kts 71°
2026-04-26 07:25 11.84558 121.79427 3222 ft 138 kts 66°
2026-04-26 07:26 11.84961 121.80321 3055 ft 138 kts 64°
2026-04-26 07:26 11.85382 121.81203 2892 ft 138 kts 63°
2026-04-26 07:26 11.85811 121.82079 2734 ft 137 kts 63°
2026-04-26 07:26 11.86240 121.82944 2582 ft 136 kts 63°
2026-04-26 07:27 11.86660 121.83786 2408 ft 131 kts 63°
2026-04-26 07:27 11.87070 121.84609 2244 ft 130 kts 64°
2026-04-26 07:27 11.87478 121.85424 2078 ft 129 kts 64°
2026-04-26 07:27 11.87890 121.86250 1907 ft 129 kts 64°
2026-04-26 07:28 11.88299 121.87068 1732 ft 129 kts 64°
2026-04-26 07:28 11.88703 121.87879 1564 ft 128 kts 64°
2026-04-26 07:28 11.89104 121.88683 1389 ft 127 kts 64°
2026-04-26 07:28 11.89511 121.89499 1225 ft 127 kts 64°
2026-04-26 07:29 11.89912 121.90302 1059 ft 127 kts 64°
2026-04-26 07:29 11.90311 121.91103 880 ft 126 kts 64°
2026-04-26 07:29 11.90712 121.91907 725 ft 126 kts 64°
2026-04-26 07:29 11.91111 121.92702 541 ft 126 kts 64°
2026-04-26 07:30 11.91508 121.93498 372 ft 126 kts 63°
2026-04-26 07:30 11.91906 121.94299 182 ft 125 kts 64°
2026-04-26 07:30 11.92300 121.95087 33 ft 123 kts 64°
2026-04-26 07:30 11.92635 121.95762 12 ft 74 kts 63°
2026-04-26 07:31 11.92751 121.95994 12 ft 13 kts 63°
2026-04-26 07:31 11.92795 121.96084 12 ft 14 kts 63°
2026-04-26 07:31 11.92841 121.96174 12 ft 14 kts 62°
2026-04-26 07:31 11.92889 121.96269 12 ft 16 kts 63°
2026-04-26 07:32 11.92945 121.96382 12 ft 15 kts 63°
2026-04-26 07:32 11.92952 121.96448 12 ft 10 kts 116°
2026-04-26 07:32 11.92905 121.96487 12 ft 5 kts 153°
2026-04-26 07:32 11.92870 121.96506 12 ft 6 kts 153°
2026-04-26 07:33 11.92828 121.96528 12 ft 7 kts 155°
2026-04-26 07:33 11.92773 121.96513 12 ft 10 kts 231°
2026-04-26 07:33 11.92737 121.96445 12 ft 11 kts 243°
2026-04-26 07:33 11.92711 121.96392 12 ft 3 kts 243°
2026-04-26 07:34 11.92700 121.96370 12 ft 2 kts 243°
2026-04-26 07:34 11.92690 121.96365 12 ft 1 kts 182°
2026-04-26 07:34 11.92678 121.96368 12 ft 1 kts 160°
2026-04-26 07:34 11.92666 121.96373 12 ft 1 kts 155°
2026-04-26 07:35 11.92656 121.96378 12 ft 0 kts 153°
2026-04-26 07:35 11.92654 121.96379 12 ft 0 kts 153°